User: anonymous   Login
Location: Unspecified
(0.0000°N, 0.0000°E)
Time: 04:11:58
(UTC+00:00)
Language:

AISSAT 1 - Orbit

View from above orbital plane
View from above orbital plane
View from above satellite
View from above satellite

Ground track
Ground track

The orbit data is extracted from the following two-line orbital elements,

1 36797U 10035C   18292.31794777  .00000156  00000-0  24388-4 0  9999
2 36797  98.0909  57.7291 0010859 194.5413 165.5490 14.86088248447947
Epoch (UTC): 19 October 2018 07:37:50
Eccentricity: 0.0010859
inclination: 98.0909°
perigee height: 602 km
apogee height: 618 km
right ascension of ascending node: 57.7291°
argument of perigee: 194.5413°
revolutions per day: 14.86088248
mean anomaly at epoch: 165.5490°
orbit number at epoch: 44794

The dashed part of the orbit path shows where the satellite is in the earth's shadow,  

DLR